www.pogodaiklimat.ru

Погода и климат >> Архив погоды >> Индонезия >> Nangapinoh


ПОГОДА в Nangapinoh

  • Прогноз погоды в Nangapinoh
  • Монитор погоды в Nangapinoh
  • Климат города

АРХИВ ПОГОДЫ в Nangapinoh

Время (UTC), дата Ветер
(напр.,м/с)
 
Видим.   Явления Облачность Т
(С)
Тd
(С)
f
(%)
Тe
(С)
Тes
(С)
Комфортность P
(гПа)
Po
(гПа)
Тmin
(С)
Tmax
(С)
R
(мм)
R24
(мм)
S
(см)
06 22.04 З 2 10 км {туман} 9/0
[Cb cap Ac As Ci fib]
+30.2 +24.1 70 +42 +52 опасность
перегрева
1010.1 1005.3
09 22.04 ЮЗ 1 10 км 5/0
[Cb cap As trans Ci fib]
+31.2 +24.9 69 +44 +47 опасность
перегрева
1008.1 1003.3
12 22.04 штиль 0 5000 м мгла 8/0
[Cb cap As op Ci fib]
+28.8 +25.7 83 +43 +43 опасность
перегрева
1010.7 1005.9 +32.3
15 22.04 штиль 0 3000 м мгла 8/0
[Cb cap As op Ci fib]
+26.4 +24.3 88 +37 +37 очень
душно
1012.5 1007.7
00 23.04 В 2 3000 м в посл. час дождь 9/0
[Cb cap As op Ci fib]
+24.6 +23.9 96 +34 +35 очень
душно
1012.8 1008.0 +23.7
03 23.04 В 2 10 км 5/0 2000 м
[Cu med, cong Ac As Ci fib]
+28.6 +24.4 78 +40 +55 опасность
солнечного
удара
1013.2 1008.4
06 23.04 С 2 10 км 8/0 2000 м
[Cu med, cong As trans Ci fib]
+31.9 +24.0 63 +44 +55 опасность
перегрева
1009.8 1005.0
09 23.04 З 2 10 км 8/0
[Cb cap As op Ci fib]
+33.4 +24.4 59 +46 +48 опасность
перегрева
1007.9 1003.1
12 23.04 Ю 2 8000 м зарница 8/0
[Cb cap As op Ci fib]
+28.6 +25.2 82 +42 +42 опасность
перегрева
1010.4 1005.6 +34.3
15 23.04 Ю 2 3000 м зарница 9/0
[Cb cap As op Ci fib]
+26.6 +23.3 82 +36 +36 очень
душно
1012.7 1007.9
00 24.04 В 2 1000 м слабый дождь 10/0
[Cb calv As op]
+23.2 +22.6 96 +32 +33 очень
душно
1014.1 1009.3 +23.3
03 24.04 В 3 8000 м {дождь} 9/0 2000 м
[Cu med, cong As op Ci fib]
+26.6 +23.3 82 +36 +45 очень
душно
1014.0 1009.2
06 24.04 С 2 10 км 9/0 2000 м
[Cu med, cong As op Ci fib]
+30.2 +24.7 72 +43 +53 опасность
перегрева
1011.0 1006.2
09 24.04 СВ 1 10 км 9/0 2000 м
[Cu med, cong Ac As Ci fib]
+30.4 +25.8 76 +45 +47 опасность
перегрева
1008.9 1004.1
12 24.04 штиль 0 7000 м 8/0 2000 м
[Cu med, cong As op Ci fib]
+27.9 +25.5 87 +41 +41 опасность
перегрева
1010.3 1005.5 +31.2
15 24.04 штиль 0 2000 м мгла 9/0 2000 м
[Cu med, cong As op Ci fib]
+26.2 +24.8 92 +37 +37 очень
душно
1010.9 1006.2
00 25.04 штиль 0 7000 м осадки на расстоянии 9/0
[Cb cap As op Ci fib]
+24.4 +23.5 95 +33 +35 очень
душно
1012.8 1008.0 +24.1
03 25.04 С 1 10 км {дождь} 9/0 2000 м
[Cu med, cong Ac As Ci fib]
+24.2 +25.2 100 +33 +45 очень
душно
1013.4 1008.6
06 25.04 З 2 10 км осадки на расстоянии {дождь} 8/0
[Cb cap As op Ci fib]
+33.0 +24.1 60 +45 +56 опасность
перегрева
1009.4 1004.6
09 25.04 СВ 3 7000 м гроза без осадков 9/0
[Cb cap As op Ci fib]
+32.2 +26.4 72 +49 +51 опасность
перегрева
1007.5 1002.7
12 25.04 Ю 2 2000 м в посл. час гроза {дождь} 10/0
[Cb cap As op]
+25.1 +24.9 99 +36 +36 очень
душно
1009.6 1004.9 +34.1
15 25.04 штиль 0 2000 м зарница {дождь} 9/0
[Cb cap As op Ci fib]
+24.9 +24.1 95 +34 +34 очень
душно
1011.5 1006.7
00 26.04 штиль 0 1000 м дымка 10/0
[Cb cap As op]
+24.8 +24.2 96 +34 +35 очень
душно
1011.9 1007.1 +24.5
03 26.04 В 1 6000 м 9/0
[Cb calv Ac As Ci fib]
+28.0 +24.8 83 +40 +51 опасность
солнечного
удара
1012.5 1007.7
06 26.04 С 2 8000 м гроза без осадков 9/0
[Cb cap As trans Ci fib]
+31.8 +24.7 66 +45 +55 опасность
перегрева
1008.8 1004.0
09 26.04 СЗ 2 7000 м в посл. час гроза 9/6 300 м
[Cb cap As op Ci fib]
+26.6 +23.9 85 +37 +37 очень
душно
1008.3 1003.5
12 26.04 З 1 3000 м зарница {гроза, дождь} 9/0
[Cb cap As op Ci fib]
+25.3 +24.0 93 +35 +35 очень
душно
1010.9 1006.1 +32.6
15 26.04 СЗ 1 2000 м дымка 9/0
[Cb cap As op Ci fib]
+24.6 +23.7 95 +33 +33 очень
душно
1012.4 1007.6
00 27.04 штиль 0 3000 м дымка 10/0 2000 м
[Cu med, cong As op]
+24.8 +23.9 95 +34 +35 очень
душно
1012.8 1008.0 +24.3
03 27.04 С 2 6000 м 9/0 2000 м
[Cu med, cong Ac As Ci fib]
+27.1 +24.5 86 +38 +49 очень
душно
1013.6 1008.8
06 27.04 С 2 10 км 8/0 2000 м
[Cu med, cong Ac As Ci fib]
+30.1 +23.6 68 +41 +51 опасность
перегрева
1009.9 1005.1
09 27.04 З 1 10 км 9/0 2000 м
[Cu med, cong Ac As Ci fib]
+32.0 +24.3 64 +44 +46 опасность
перегрева
1008.0 1003.2
12 27.04 ЮЗ 2 5000 м зарница 10/0
[Cb cap As op]
+27.0 +24.2 85 +38 +38 очень
душно
1011.0 1006.2 +32.3
15 27.04 В 1 2000 м зарница 10/0
[Cb cap As op]
+25.2 +23.8 92 +34 +34 очень
душно
1012.2 1007.4
00 28.04 ЮВ 2 1000 м дымка 9/0
[Cb calv Ac As Ci fib]
+24.2 +23.2 94 +32 +34 очень
душно
1013.3 1008.5 +24.2
03 28.04 ЮЗ 2 10 км 8/0 2000 м
[Cu med, cong As trans Ci fib]
+29.0 +23.8 74 +40 +50 очень
душно
1013.0 1008.2
06 28.04 З 2 10 км 8/0 2000 м
[Cu med, cong As op Ci fib]
+32.1 +23.2 59 +42 +54 опасность
перегрева
1009.6 1004.6
09 28.04 З 3 10 км 8/0
[Cb calv As op Ci fib]
+33.0 +23.6 58 +44 +46 опасность
перегрева
1008.0 1003.2
12 28.04 ЮЗ 3 3000 м гроза, ливневой дождь 10/0
[Cb cap As op]
+26.8 +24.3 86 +37 +37 очень
душно
1010.8 1006.0 +33.6
15 28.04 штиль 0 1000 м слабый ливневой дождь, в посл. час гроза 10/0
[Cb cap As op]
+25.3 +24.0 93 +35 +35 очень
душно
1012.5 1007.7
00 29.04 штиль 0 2000 м дымка 10/0 2000 м
[Cu Sc As op]
+24.2 +23.6 96 +33 +33 очень
душно
1013.1 1008.3 +24.3
03 29.04 ЮВ 1 3000 м в посл. час дождь 10/0
[Cb cap As op]
+26.2 +24.1 88 +36 +40 очень
душно
1014.0 1009.2

 

Местоположение метеостанции Nangapinoh (Индонезия): широта -0.35 долгота 111.78 высота над уровнем моря 37 м.

В архиве по умолчанию представлена погода в Nangapinoh за последнюю неделю. Архивные данные за месяц целиком и за предыдущие месяцы, начиная с января 2011 года, Вы можете получить, выбрав интересующий диапазон дат из раскрывающегося списка и нажав кнопку "Ввод!".

Внимание! Время в таблицах - всемирное. Для получения местного времени необходимо прибавить поправку, которая в Nangapinoh равна 7 ч.

Смотрите также архив погоды в соседних городах и на ближайших метеорологических станциях:

Погода в Sintang (Индонезия) (59 км)
Погода в Putussibau (Индонезия) (185 км)
Погода в Palangkaraya (Индонезия) (257 км)
Погода в Kuching (Малайзия) (260 км)
Погода в Pangkalan Bun (Индонезия) (262 км)
Погода в Ketapang (Индонезия) (262 км)
Погода в Pontianak (Индонезия) (266 км)
Погода в Sibu (Малайзия) (298 км)
Погода в Muaratewe (Индонезия) (353 км)
Погода в Paloh (Индонезия) (363 км)

Пояснения к столбцам:

Ветер - указаны скорость ветра в м/с - средняя за 10 мин, порывы в срок и между сроками (в фигурных скобках) и направление, откуда дует ветер: С - северный, СВ - северо-восточный, В - восточный, ЮВ - юго-восточный, Ю - южный, ЮЗ - юго-западный, З - западный, СЗ - северо-западный.
Видимость - горизонтальная дальность видимости в метрах или километрах. При видимости от 1 до 10 км при отсутствии осадков обычно наблюдается дымка, при ухудшении видимости до 1 км и менее - туман. В сухую погоду видимость может ухудшаться дымом, пылью или мглою.
Явления - указаны атмосферные явления, наблюдавшиеся в срок или в последний час перед сроком; фигурными скобками обозначены явления, наблюдавшиеся между сроками (за 1-3 часа до срока); квадратными скобками обозначены град или гололедные отложения с указанием их диаметра в мм.
Облачность - указаны через наклонную черту общая и нижняя облачность в баллах и высота нижней границы облаков в метрах; квадратными скобками обозначены формы облаков: Ci - перистые, Cs - перисто-слоистые, Cc - перисто-кучевые, Ac - высококучевые, As - высокослоистые, Sc - слоисто-кучевые, Ns - слоисто-дождевые, Cu - кучевые, Cb - кучево-дождевые. Подробнее классификацию облаков см. в Атласе облаков (PDF).
T - Температура воздуха - температура, измеренная на высоте 2 м над землей.
Td - Температура точки росы - температура, при понижении до которой содержащийся в воздухе водяной пар достигнет насыщения.
f - Относительная влажность воздуха - влажноcть воздуха, измеренная на высоте 2 м над землей.
Te - Эффективная температура - температура, которую ощущает одетый по сезону человек в тени. Характеристика душности погоды. При расчете учитывается влияние влажности воздуха и скорости ветра на теплоощущения человека.
Tes - Эффективная температура на солнце - температура, которую ощущает человек, с поправкой на солнечный нагрев. Характеристика знойности погоды. Зависит от высоты солнца над горизонтом, облачности и скорости ветра. Ночью, в пасмурную погоду, а также при ветре 12 м/с и более поправка равна нулю.
P - Атмосферное давление - приведенное к уровню моря атмосферное давление.
Po - Атмосферное давление - измеренное на уровне метеостанции атмосферное давление.
Tmin - Минимальная температура - минимум температуры воздуха на высоте 2 м над землей.
Tmax - Максимальная температура - максимум температуры воздуха на высоте 2 м над землей.
R - Количество осадков - Количество выпавших осадков за период времени, мм. При наведении курсора мыши на число - период времени, за который выпало указанное количество осадков.
R24 - Количество осадков - Количество выпавших осадков за 24 часа, мм.
S - Снежный покров - Высота снежного покрова, см. При наведении курсора мыши на число - состояние снежного покрова и степень покрытия местности в баллах.